FW0810 Weather Reports


Display with metric or nautical units.
time (UTC)temp
F
wind
direction
speed
MPH
gust
MPH
rain 1hr
in
rain 24hr
in
rain mn
in
humidity
%
barometer
mb
20260903222529 70 275 1.0 5.0 0.00 0.00 0.00 71 1022.5
20260903222026 70 272 0.0 2.0 0.00 0.00 0.00 71 1022.3
20260903221519 71 276 0.0 2.0 0.00 0.00 0.00 71 1022.3
20260903221017 71 277 0.0 3.0 0.00 0.00 0.00 71 1022.1
20260903220513 71 276 0.0 3.0 0.00 0.00 0.00 70 1022.2
20260903220015 71 266 0.0 2.0 0.00 0.00 0.00 70 1022.2
20260903215513 71 267 0.0 0.0 0.00 0.00 0.00 70 1022.2
20260903214513 71 266 0.0 2.0 0.00 0.00 0.00 70 1022.2
20260903214010 71 266 0.0 3.0 0.00 0.00 0.00 70 1022.2
20260903213007 72 267 0.0 2.0 0.00 0.00 0.00 69 1022.2
20260903212506 72 264 0.0 3.0 0.00 0.00 0.00 69 1022.0
20260903212002 72 269 0.0 3.0 0.00 0.00 0.00 68 1022.1
20260903211500 72 271 1.0 3.0 0.00 0.00 0.00 69 1022.0
20260903211001 72 270 1.0 3.0 0.00 0.00 0.00 69 1022.1
20260903210458 72 274 0.0 2.0 0.00 0.00 0.00 69 1022.0
20260903205956 72 276 0.0 3.0 0.00 0.00 0.00 69 1021.9
20260903204951 72 274 0.0 2.0 0.00 0.00 0.00 68 1021.8
20260903203949 73 273 0.0 4.0 0.00 0.00 0.00 67 1021.8
20260903202949 73 272 0.0 4.0 0.00 0.00 0.00 66 1021.8
20260903202449 74 278 0.0 0.0 0.00 0.00 0.00 65 1021.8
20260903201951 74 279 0.0 1.0 0.00 0.00 0.00 65 1021.8
20260903201450 75 282 0.0 4.0 0.00 0.00 0.00 64 1021.8
20260903200950 75 283 0.0 4.0 0.00 0.00 0.00 63 1021.7
20260903195946 76 264 0.0 0.0 0.00 0.00 0.00 61 1021.6
20260903195446 76 264 0.0 0.0 0.00 0.00 0.00 61 1021.6
20260903194949 76 264 0.0 0.0 0.00 0.00 0.00 61 1021.6
20260903193943 77 264 0.0 0.0 0.00 0.00 0.00 60 1021.6
20260903193439 77 261 0.0 0.0 0.00 0.00 0.00 59 1021.6
20260903192941 77 261 0.0 0.0 0.00 0.00 0.00 59 1021.6
20260903192441 78 261 0.0 0.0 0.00 0.00 0.00 59 1021.7
20260903191438 79 257 0.0 0.0 0.00 0.00 0.00 57 1021.5
20260903190935 79 250 0.0 0.0 0.00 0.00 0.00 56 1021.4
20260903190439 79 254 0.0 0.0 0.00 0.00 0.00 55 1021.3
20260903185933 80 254 0.0 0.0 0.00 0.00 0.00 55 1021.2
20260903185433 80 254 0.0 0.0 0.00 0.00 0.00 55 1021.2
20260903184927 80 254 0.0 0.0 0.00 0.00 0.00 55 1021.2
20260903184427 81 254 0.0 0.0 0.00 0.00 0.00 54 1021.1
20260903183926 82 252 0.0 0.0 0.00 0.00 0.00 53 1021.0
20260903183425 82 110 0.0 0.0 0.00 0.00 0.00 52 1020.9
20260903182927 83 110 0.0 0.0 0.00 0.00 0.00 50 1020.8
20260903182426 84 109 0.0 0.0 0.00 0.00 0.00 50 1020.7
20260903181925 84 109 0.0 0.0 0.00 0.00 0.00 49 1020.6
20260903181425 85 110 0.0 0.0 0.00 0.00 0.00 49 1020.5
20260903180925 85 110 0.0 0.0 0.00 0.00 0.00 49 1020.3
20260903180423 85 110 0.0 0.0 0.00 0.00 0.00 48 1020.4
20260903175923 86 110 0.0 0.0 0.00 0.00 0.00 46 1020.2
20260903175423 86 110 0.0 0.0 0.00 0.00 0.00 46 1020.2
20260903174423 87 110 0.0 0.0 0.00 0.00 0.00 44 1020.0
20260903173923 88 110 0.0 0.0 0.00 0.00 0.00 43 1019.9
20260903173423 89 110 0.0 0.0 0.00 0.00 0.00 42 1020.0
20260903172921 90 110 0.0 0.0 0.00 0.00 0.00 38 1019.8
20260903172420 91 110 0.0 0.0 0.00 0.00 0.00 37 1020.0
20260903171921 91 110 0.0 0.0 0.00 0.00 0.00 36 1020.0
20260903171414 92 110 0.0 0.0 0.00 0.00 0.00 36 1020.0
20260903170913 92 110 0.0 0.0 0.00 0.00 0.00 36 1020.2
20260903170413 92 110 0.0 0.0 0.00 0.00 0.00 35 1020.3
20260903165913 93 110 0.0 0.0 0.00 0.00 0.00 34 1020.3
20260903165411 93 110 0.0 1.0 0.00 0.00 0.00 35 1020.2
20260903164913 93 110 0.0 1.0 0.00 0.00 0.00 34 1020.2
20260903164411 93 148 0.0 3.0 0.00 0.00 0.00 34 1020.0
20260903163910 93 147 0.0 3.0 0.00 0.00 0.00 34 1020.0
20260903163408 93 130 0.0 1.0 0.00 0.00 0.00 34 1020.0
20260903162905 93 130 0.0 2.0 0.00 0.00 0.00 34 1019.9
20260903162403 93 158 0.0 2.0 0.00 0.00 0.00 34 1019.8
20260903161903 93 143 0.0 1.0 0.00 0.00 0.00 33 1019.9
20260903161403 93 141 0.0 3.0 0.00 0.00 0.00 33 1019.9
20260903160918 93 139 0.0 3.0 0.00 0.00 0.00 33 1019.9
20260903160403 93 141 0.0 3.0 0.00 0.00 0.00 33 1020.0
20260903155901 93 108 1.0 6.0 0.00 0.00 0.00 34 1019.9
20260903155401 93 108 1.0 6.0 0.00 0.00 0.00 33 1019.9
20260903154902 94 103 1.0 5.0 0.00 0.00 0.00 33 1020.0
20260903154407 94 118 1.0 6.0 0.00 0.00 0.00 33 1020.0
20260903153855 94 106 0.0 6.0 0.00 0.00 0.00 32 1020.0
20260903152855 95 120 0.0 4.0 0.00 0.00 0.00 32 1020.0
20260903152352 95 310 0.0 4.0 0.00 0.00 0.00 32 1019.9
20260903151354 95 105 0.0 3.0 0.00 0.00 0.00 32 1019.9
20260903150853 95 110 0.0 3.0 0.00 0.00 0.00 32 1019.9
20260903150353 95 296 0.0 6.0 0.00 0.00 0.00 32 1020.0
20260903145854 95 283 1.0 7.0 0.00 0.00 0.00 31 1020.0
20260903144855 95 274 1.0 8.0 0.00 0.00 0.00 31 1020.0
20260903143850 95 287 0.0 5.0 0.00 0.00 0.00 31 1020.0
20260903143349 95 271 0.0 5.0 0.00 0.00 0.00 31 1019.9
20260903142849 95 129 0.0 2.0 0.00 0.00 0.00 30 1019.8
20260903142348 95 119 0.0 2.0 0.00 0.00 0.00 31 1019.9
20260903141849 95 338 0.0 3.0 0.00 0.00 0.00 31 1019.9
20260903141351 95 325 0.0 3.0 0.00 0.00 0.00 31 1020.0
20260903140349 94 285 0.0 5.0 0.00 0.00 0.00 31 1019.9
20260903135851 94 131 0.0 4.0 0.00 0.00 0.00 31 1020.0
20260903134349 95 309 0.0 1.0 0.00 0.00 0.00 32 1020.3
20260903133850 95 268 0.0 7.0 0.00 0.00 0.00 30 1020.4
20260903132851 95 60 0.0 3.0 0.00 0.00 0.00 30 1020.4
20260903130850 94 115 0.0 5.0 0.00 0.00 0.00 31 1020.3
20260903130349 94 320 0.0 5.0 0.00 0.00 0.00 31 1020.3
20260903125348 94 314 0.0 3.0 0.00 0.00 0.00 32 1020.4
20260903124849 94 349 1.0 6.0 0.00 0.00 0.00 32 1020.4
20260903124349 94 319 2.0 8.0 0.00 0.00 0.00 32 1020.4
20260903123349 94 248 0.0 4.0 0.00 0.00 0.00 34 1020.5
20260903122849 93 358 0.0 5.0 0.00 0.00 0.00 33 1020.5
20260903122346 93 4 0.0 5.0 0.00 0.00 0.00 34 1020.5
20260903121847 93 19 0.0 5.0 0.00 0.00 0.00 34 1020.6
20260903121350 93 295 0.0 3.0 0.00 0.00 0.00 34 1020.6
20260903115844 93 340 0.0 3.0 0.00 0.00 0.00 35 1020.7
20260903114828 93 42 0.0 2.0 0.00 0.00 0.00 36 1020.9
20260903114326 92 176 0.0 3.0 0.00 0.00 0.00 38 1021.0
20260903113839 92 328 0.0 3.0 0.00 0.00 0.00 36 1020.9
20260903113326 92 359 0.0 4.0 0.00 0.00 0.00 36 1021.0
20260903112824 92 133 0.0 4.0 0.00 0.00 0.00 37 1021.0
20260903112326 92 136 0.0 4.0 0.00 0.00 0.00 38 1021.1
20260903111825 92 59 0.0 3.0 0.00 0.00 0.00 41 1021.0
20260903111324 91 60 0.0 3.0 0.00 0.00 0.00 40 1021.1
20260903110824 91 345 0.0 4.0 0.00 0.00 0.00 40 1021.1
20260903110324 91 137 0.0 4.0 0.00 0.00 0.00 40 1021.3
20260903105824 90 188 0.0 2.0 0.00 0.00 0.00 43 1021.2
20260903105325 90 169 0.0 5.0 0.00 0.00 0.00 42 1021.4
20260903104824 90 324 0.0 5.0 0.00 0.00 0.00 43 1021.4
20260903104326 90 357 0.0 1.0 0.00 0.00 0.00 44 1021.4
20260903103824 90 357 0.0 5.0 0.00 0.00 0.00 44 1021.5
20260903102822 90 132 0.0 5.0 0.00 0.00 0.00 45 1021.5
20260903101312 89 223 0.0 3.0 0.00 0.00 0.00 46 1021.7
20260903100805 89 241 0.0 3.0 0.00 0.00 0.00 47 1021.7
20260903100258 89 188 0.0 1.0 0.00 0.00 0.00 48 1021.8
20260903095752 88 269 0.0 1.0 0.00 0.00 0.00 49 1021.9
20260903095246 88 303 0.0 4.0 0.00 0.00 0.00 48 1021.9
20260903094741 88 300 1.0 5.0 0.00 0.00 0.00 49 1022.0
20260903094236 88 321 0.0 5.0 0.00 0.00 0.00 51 1022.0
20260903093742 87 123 0.0 3.0 0.00 0.00 0.00 52 1022.0
20260903092716 87 180 1.0 5.0 0.00 0.00 0.00 55 1022.2
20260903092210 87 97 0.0 3.0 0.00 0.00 0.00 56 1022.2
20260903091213 86 68 0.0 3.0 0.00 0.00 0.00 56 1022.2
20260903090652 85 141 0.0 3.0 0.00 0.00 0.00 57 1022.1
20260903090159 85 141 0.0 3.0 0.00 0.00 0.00 57 1022.2
20260903085642 85 189 0.0 3.0 0.00 0.00 0.00 59 1022.2
20260903085133 85 193 0.0 4.0 0.00 0.00 0.00 60 1022.2
20260903084627 84 136 0.0 4.0 0.00 0.00 0.00 60 1022.2
20260903084122 84 167 0.0 2.0 0.00 0.00 0.00 60 1022.2
20260903083618 84 205 0.0 3.0 0.00 0.00 0.00 61 1022.2
20260903083119 83 269 0.0 3.0 0.00 0.00 0.00 62 1022.2
20260903082617 83 142 0.0 1.0 0.00 0.00 0.00 63 1022.1
20260903081612 82 135 0.0 3.0 0.00 0.00 0.00 64 1022.1
20260903080613 81 187 0.0 4.0 0.00 0.00 0.00 66 1022.1
20260903080117 80 140 0.0 4.0 0.00 0.00 0.00 65 1022.0
20260903075109 79 214 0.0 3.0 0.00 0.00 0.00 69 1022.0
20260903074609 78 261 0.0 3.0 0.00 0.00 0.00 70 1022.0
20260903074105 78 238 0.0 4.0 0.00 0.00 0.00 70 1022.0
20260903073102 77 255 0.0 5.0 0.00 0.00 0.00 71 1022.0
20260903072604 77 252 0.0 3.0 0.00 0.00 0.00 73 1022.0
20260903072103 76 264 0.0 3.0 0.00 0.00 0.00 73 1022.0
20260903071603 76 269 0.0 3.0 0.00 0.00 0.00 74 1021.9
20260903071105 75 281 0.0 3.0 0.00 0.00 0.00 75 1022.0
20260903070602 75 275 0.0 3.0 0.00 0.00 0.00 75 1022.0
20260903070111 74 279 0.0 4.0 0.00 0.00 0.00 78 1021.9
20260903065552 74 281 0.0 4.0 0.00 0.00 0.00 78 1022.0
20260903065045 73 281 0.0 1.0 0.00 0.00 0.00 79 1021.9
20260903064542 72 281 0.0 2.0 0.00 0.00 0.00 80 1021.9
20260903064037 72 282 0.0 2.0 0.00 0.00 0.00 81 1021.9
20260903063530 71 285 0.0 1.0 0.00 0.00 0.00 81 1021.9
20260903063024 70 288 0.0 3.0 0.00 0.00 0.00 83 1021.9
20260903062014 69 288 1.0 4.0 0.00 0.00 0.00 83 1021.9
20260903061005 68 275 0.0 4.0 0.00 0.00 0.00 84 1021.9
20260903060504 67 288 0.0 4.0 0.00 0.00 0.00 84 1022.0
20260903060005 67 278 0.0 4.0 0.00 0.00 0.00 84 1021.9
20260903055504 67 269 0.0 1.0 0.00 0.00 0.00 84 1021.9
20260903055005 66 272 0.0 1.0 0.00 0.00 0.00 85 1021.8
20260903054502 66 271 0.0 3.0 0.00 0.00 0.00 84 1021.8
20260903054005 66 271 0.0 3.0 0.00 0.00 0.00 84 1021.8
20260903053502 66 274 0.0 2.0 0.00 0.00 0.00 85 1021.8
20260903053002 65 274 0.0 2.0 0.00 0.00 0.00 86 1021.8
20260903052501 65 291 0.0 3.0 0.00 0.00 0.00 86 1021.8
20260903052001 65 276 0.0 3.0 0.00 0.00 0.00 86 1021.8
20260903051503 64 268 0.0 2.0 0.00 0.00 0.00 86 1021.7
20260903051001 64 266 0.0 1.0 0.00 0.00 0.00 86 1021.6
20260903050456 64 266 0.0 1.0 0.00 0.00 0.00 85 1021.6
20260903045457 64 268 0.0 3.0 0.00 0.00 0.00 85 1021.6
20260903045008 64 268 1.0 5.0 0.00 0.00 0.00 84 1021.6
20260903044459 64 271 1.0 5.0 0.00 0.00 0.00 84 1021.6
20260903043956 64 276 0.0 1.0 0.00 0.00 0.00 84 1021.6
20260903043455 65 272 0.0 0.0 0.00 0.00 0.00 84 1021.5
20260903042457 64 272 0.0 0.0 0.00 0.00 0.00 84 1021.5
20260903041454 65 271 0.0 3.0 0.00 0.00 0.00 83 1021.6
20260903040952 65 282 0.0 3.0 0.00 0.00 0.00 83 1021.6
20260903035954 65 262 0.0 0.0 0.00 0.00 0.00 82 1021.6
20260903035458 65 261 0.0 0.0 0.00 0.00 0.00 82 1021.7
20260903034953 65 261 0.0 0.0 0.00 0.00 0.00 82 1021.6
20260903034451 65 261 0.0 0.0 0.00 0.00 0.00 82 1021.5
20260903033953 65 261 0.0 0.0 0.00 0.00 0.00 82 1021.6
20260903033446 65 276 0.0 0.0 0.00 0.00 0.00 81 1021.6
20260903032941 65 276 0.0 0.0 0.00 0.00 0.00 81 1021.6
20260903032433 65 276 0.0 2.0 0.00 0.00 0.00 81 1021.6
20260903031929 65 279 0.0 2.0 0.00 0.00 0.00 81 1021.7
20260903030915 65 274 0.0 0.0 0.00 0.00 0.00 80 1021.6
20260903030422 65 274 0.0 2.0 0.00 0.00 0.00 80 1021.6
20260903025903 65 277 0.0 2.0 0.00 0.00 0.00 80 1021.6
20260903024851 66 270 1.0 3.0 0.00 0.00 0.00 79 1021.6
20260903024346 66 259 1.0 4.0 0.00 0.00 0.00 79 1021.6
20260903023839 66 276 0.0 4.0 0.00 0.00 0.00 78 1021.6
20260903023333 66 265 0.0 0.0 0.00 0.00 0.00 78 1021.6
20260903022827 66 265 0.0 0.0 0.00 0.00 0.00 78 1021.5
20260903022325 66 265 1.0 5.0 0.00 0.00 0.00 78 1021.7
20260903021815 66 265 1.0 5.0 0.00 0.00 0.00 77 1021.7
20260903020803 66 263 0.0 0.0 0.00 0.00 0.00 76 1021.8
20260903020257 66 262 0.0 0.0 0.00 0.00 0.00 76 1021.7
20260903015754 67 262 0.0 0.0 0.00 0.00 0.00 76 1021.8
20260903015255 67 262 0.0 0.0 0.00 0.00 0.00 75 1021.8
20260903014743 67 262 0.0 0.0 0.00 0.00 0.00 75 1021.7
20260903014237 67 263 0.0 0.0 0.00 0.00 0.00 75 1021.7
20260903013730 67 263 0.0 0.0 0.00 0.00 0.00 74 1021.7
20260903013221 67 263 0.0 2.0 0.00 0.00 0.00 74 1021.7
20260903012716 67 263 0.0 2.0 0.00 0.00 0.00 74 1021.7
20260903011703 67 270 0.0 3.0 0.00 0.00 0.00 73 1021.6
20260903011156 67 268 0.0 3.0 0.00 0.00 0.00 73 1021.6
20260903010655 68 274 0.0 6.0 0.00 0.00 0.00 73 1021.6
20260903010208 68 284 0.0 6.0 0.00 0.00 0.00 73 1021.7
20260903005656 68 285 0.0 1.0 0.00 0.00 0.00 73 1021.6
20260903005156 68 274 0.0 3.0 0.00 0.00 0.00 72 1021.8
20260903004653 68 276 0.0 3.0 0.00 0.00 0.00 71 1021.7
20260903004154 69 267 0.0 3.0 0.00 0.00 0.00 71 1021.7
20260903003651 69 213 0.0 0.0 0.00 0.00 0.00 71 1021.7
20260903003151 69 213 0.0 0.0 0.00 0.00 0.00 70 1021.7
20260903002147 70 291 0.0 0.0 0.00 0.00 0.00 68 1021.6
20260903001647 70 295 0.0 1.0 0.00 0.00 0.00 68 1021.7
20260903001149 70 295 0.0 1.0 0.00 0.00 0.00 68 1021.7
20260903000647 70 296 0.0 1.0 0.00 0.00 0.00 68 1021.7
20260903000147 71 296 0.0 1.0 0.00 0.00 0.00 67 1021.8
20260902235150 71 302 0.0 0.0 0.00 0.00 0.00 66 1021.8
20260902234152 72 303 0.0 0.0 0.00 0.00 0.00 65 1021.8
20260902233641 72 303 0.0 1.0 0.00 0.00 0.00 65 1021.8
20260902233139 72 303 0.0 1.0 0.00 0.00 0.00 65 1021.7
20260902232634 72 272 0.0 0.0 0.00 0.00 0.00 65 1021.7
20260902232128 72 273 0.0 0.0 0.00 0.00 0.00 64 1021.7
20260902231620 73 272 0.0 0.0 0.00 0.00 0.00 64 1021.6
20260902231114 74 275 0.0 0.0 0.00 0.00 0.00 62 1021.5
20260902230611 74 276 0.0 0.0 0.00 0.00 0.00 60 1021.5
20260902230105 75 276 0.0 0.0 0.00 0.00 0.00 60 1021.4
20260902225558 75 276 0.0 0.0 0.00 0.00 0.00 59 1021.5
20260902224546 75 276 0.0 0.0 0.00 0.00 0.00 59 1021.5
20260902224040 76 276 0.0 0.0 0.00 0.00 0.00 58 1021.5
20260902223026 76 276 0.0 1.0 0.00 0.00 0.00 58 1021.5